Tracking 23752 objects as of 24-Oct-2021
HD Live streaming from Space Station
objects crossing your sky now

SL-8 DEB *

Track SL-8 DEB * now!
10-day predictions


NORAD ID: 14865
Int'l Code: 1975-094E
Perigee: 679.4 km
Apogee: 685.8 km
Inclination: 74.0 °
Period: 98.3 minutes
Semi major axis: 7053 km
RCS: 0.0088 m2 (small)
Launch date: September 30, 1975
Source: Commonwealth of Independent States (former USSR) (CIS)
Launch site: PLESETSK MISSILE AND SPACE COMPLEX (PKMTR)

Note: This is SATELLITE DEBRIS
aabbcc
Your satellite tracking list
Your tracking list is empty




NASA's NSSDC Master Catalog

Two Line Element Set (TLE):
1 14865U 75094E   21296.64923028  .00000585  00000-0  11373-3 0  9999
2 14865  74.0253 250.5258 0004507 287.9301 131.2722 14.65503564498626
Source of the keplerian elements: AFSPC